Find Bufeng yi hao B xing

NORAD ID: 44314 Int'l Des: 2019-032 Owner: CAST Country: CN operational
LEOCIRCULAR

实时位置

正在加载3D地球...

关于 Bufeng yi hao B xing

正在加载描述...

即将过境

Passes for default location (London). Set your location on the main map for personalized predictions.

高度历史

Loading altitude history...

两行轨道根数

1 44314U 19032E 26107.29779868 .00009998 00000-0 28198-3 0 9999
2 44314 45.0022 317.2333 0006943 324.2978 35.7443 15.36674237378705
Epoch: Apr 17, 2026 • Age: 6 hours

当前状态

高度 466.9 km
速度 7.63 km/s
星下点 -44.57°S, 163.68°W
发射日期 Jun 5, 2019
运行时间 6.8 years
类型 other

技术详情

分类 Payload
质量 10.00 kg
干质量 10.00 kg
总质量 10.00 kg
长度 0.30 m
直径 0.20 m
跨度 0.30 m
形状 Box
制造商 CAST
平台类型 BF
阶段状态 In Orbit
所有者/国家 CAST/CN

Most Searched